Weather History for KMCN - February, 2013

Change the Weather History Date:

Tuesday, February 26, 2013

  Actual Average Record
Temperature  
Mean Temperature 56 °F 52 °F  
Max Temperature 68 °F 65 °F 81 °F (1951)
Min Temperature 43 °F 40 °F 15 °F (1967)
Degree Days  
Heating Degree Days 9 13  
Month to date heating degree days 429 396  
Since 1 July heating degree days 1643 1901  
Cooling Degree Days 0 0  
Month to date cooling degree days 0 0  
Year to date cooling degree days 18 1  
Growing Degree Days 6 (Base 50)    
Moisture  
Dew Point 46 °F    
Average Humidity 71    
Maximum Humidity 100    
Minimum Humidity 42    
Precipitation  
Precipitation 1.23 in 0.16 in 3.27 in (1929)
Month to date precipitation 12.87 4.06  
Year to date precipitation 14.92 8.30  
Snow  
Snow 0.00 in 0.00 in 0.00 in (2002)
Month to date snowfall 0.0 0.0  
Since 1 July snowfall 0.0 0.5  
Snow Depth -    
Sea Level Pressure  
Sea Level Pressure 29.66 in    
Wind  
Wind Speed 11 mph (West)    
Max Wind Speed 21 mph    
Max Gust Speed 28 mph    
Visibility 7 miles    
Events Fog , Rain    
T = Trace of Precipitation, MM = Missing Value Source: NWS Daily Summary

Daily Weather History Graph

Daily Weather History Graph

Search for Another Location

Airport or City:

Trip Planner

Search our weather history database for the weather conditions in past years. The results will help you decide how hot, cold, wet, or windy it might be!

Date:

Astronomy

Feb. 26, 2013 Rise Set
Actual Time 7:05 AM EST 6:29 PM EST
Civil Twilight 6:40 AM EST 6:54 PM EST
Nautical Twilight 6:12 AM EST 7:23 PM EST
Astronomical Twilight 5:43 AM EST 7:51 PM EST
Moon 7:38 PM EST (2/26) 7:13 AM EST (2/26)
Length of Visible Light 12h 13m
Length of Day
11h 24m
Full, 99% of the Moon is Illuminated
Feb 26
Full
Mar 4
Last Quarter
Mar 11
New
Mar 19
First Quarter
Mar 27
Full

Hourly Weather History & Observations

Time (EST) Temp. Windchill Dew Point Humidity Pressure Visibility Wind Dir Wind Speed Gust Speed Precip Events Conditions
12:53 AM 43.0 °F 36.0 °F 42.1 °F 97% 29.81 in 8.0 mi East 13.8 mph - 0.18 in Rain Light Rain
1:53 AM 43.0 °F 35.7 °F 42.1 °F 97% 29.76 in 4.0 mi East 15.0 mph 25.3 mph 0.17 in Rain Rain
2:53 AM 44.1 °F 38.1 °F 43.0 °F 96% 29.73 in 5.0 mi East 11.5 mph - 0.14 in Rain Rain
3:49 AM 44.6 °F 41.4 °F 44.6 °F 100% 29.72 in 2.5 mi East 5.8 mph - 0.29 in Rain Rain
3:53 AM 44.1 °F 40.1 °F 44.1 °F 100% 29.72 in 4.0 mi East 6.9 mph - 0.31 in Rain Light Rain
4:26 AM 44.6 °F 42.2 °F 42.8 °F 93% 29.70 in 2.5 mi East 4.6 mph - 0.18 in Rain Rain
4:34 AM 44.6 °F 39.7 °F 42.8 °F 93% 29.70 in 5.0 mi ENE 9.2 mph - 0.19 in Rain Rain
4:53 AM 44.1 °F 40.8 °F 43.0 °F 96% 29.71 in 5.0 mi ESE 5.8 mph - 0.28 in Rain Rain
5:53 AM 45.0 °F 37.1 °F 44.1 °F 97% 29.66 in 8.0 mi East 19.6 mph - 0.04 in Rain Light Rain
6:53 AM 46.0 °F 41.9 °F 46.0 °F 100% 29.64 in 8.0 mi ENE 8.1 mph - 0.12 in Rain Light Rain
7:53 AM 46.0 °F 41.9 °F 46.0 °F 100% 29.62 in 10.0 mi East 8.1 mph - 0.02 in Rain Light Rain
8:53 AM 48.0 °F - 46.9 °F 96% 29.59 in 10.0 mi East 10.4 mph - 0.00 in   Overcast
9:40 AM 50.0 °F - 50.0 °F 100% 29.59 in 1.5 mi SE 4.6 mph - N/A   Overcast
9:53 AM 50.0 °F - 50.0 °F 100% 29.60 in 1.0 mi Calm Calm - N/A   Overcast
10:00 AM 50.0 °F - 50.0 °F 100% 29.60 in 6.0 mi Calm Calm - N/A   Overcast
10:08 AM 50.0 °F - 50.0 °F 100% 29.60 in 1.0 mi Calm Calm - N/A   Overcast
10:53 AM 51.1 °F - 51.1 °F 100% 29.61 in 1.0 mi NNW 4.6 mph - N/A   Overcast
11:06 AM 51.8 °F - 51.8 °F 100% 29.61 in 0.5 mi Calm Calm - N/A Fog Fog
11:53 AM 57.9 °F - 55.0 °F 90% 29.61 in 0.5 mi WNW 3.5 mph - N/A Fog Fog
12:00 PM 60.8 °F - 55.4 °F 82% 29.61 in 8.0 mi WNW 6.9 mph - N/A   Mostly Cloudy
12:09 PM 60.8 °F - 57.2 °F 88% 29.61 in 10.0 mi West 10.4 mph - N/A   Scattered Clouds
12:16 PM 60.8 °F - 55.4 °F 82% 29.61 in 10.0 mi WNW 9.2 mph - N/A   Mostly Cloudy
12:23 PM 60.8 °F - 55.4 °F 82% 29.62 in 10.0 mi WNW 12.7 mph - N/A   Mostly Cloudy
12:53 PM 64.0 °F - 57.0 °F 78% 29.60 in 10.0 mi West 8.1 mph - N/A   Partly Cloudy
1:53 PM 66.9 °F - 48.9 °F 52% 29.57 in 10.0 mi SW 17.3 mph 24.2 mph N/A   Partly Cloudy
2:53 PM 68.0 °F - 46.0 °F 45% 29.57 in 10.0 mi SW 18.4 mph 25.3 mph N/A   Clear
3:53 PM 66.9 °F - 45.0 °F 45% 29.57 in 10.0 mi SW 17.3 mph 23.0 mph N/A   Clear
4:53 PM 66.9 °F - 43.0 °F 42% 29.57 in 10.0 mi SW 13.8 mph 25.3 mph N/A   Clear
5:53 PM 64.9 °F - 42.1 °F 43% 29.60 in 10.0 mi WSW 11.5 mph 21.9 mph N/A   Clear
6:53 PM 61.0 °F - 43.0 °F 52% 29.65 in 10.0 mi West 11.5 mph 19.6 mph N/A   Clear
7:53 PM 59.0 °F - 42.1 °F 53% 29.69 in 10.0 mi West 11.5 mph - N/A   Clear
8:53 PM 55.9 °F - 41.0 °F 57% 29.74 in - NW 16.1 mph - N/A   Unknown
9:53 PM 50.0 °F - 37.0 °F 61% 29.79 in 10.0 mi WNW 13.8 mph 23.0 mph N/A   Clear
10:53 PM 46.9 °F - 37.0 °F 68% 29.82 in 10.0 mi West 6.9 mph - N/A   Clear
11:53 PM 45.0 °F 40.6 °F 36.0 °F 71% 29.83 in 10.0 mi West 8.1 mph - N/A   Clear